Location: Newark
(48.1500°N, 2.9667°W)
Time: 20:51:13
(UTC+00:00)

A-11 Canister half - Pass Details

Date: 28 January 2020
Orbit: 1524 x 1684 km, 47.3° (Epoch: 22 February)

Event Time Altitude Azimuth Distance (km) Brightness Sun altitude
Rises 15:08:36 0° 191° (S) 4,660 12.7 14.2°
Reaches altitude 10° 15:12:26 10° 178° (S) 3,681 11.8 13.8°
Maximum altitude 15:19:07 23° 130° (SE) 2,822 10.5 13.1°
Drops below altitude 10° 15:25:52 10° 84° (E) 3,731 10.6 12.3°
Sets 15:29:46 0° 71° (ENE) 4,740 11.0 11.8°
